Weather History for KGUY - January, 2013

Change the Weather History Date:

Tuesday, January 1, 2013

  Actual Average Record
Temperature  
Mean Temperature 18 °F 34 °F  
Max Temperature 25 °F 47 °F - ()
Min Temperature 12 °F 21 °F - ()
Degree Days  
Heating Degree Days 46 31  
Month to date heating degree days 31  
Since 1 July heating degree days 1848  
Cooling Degree Days 0 0  
Month to date cooling degree days 0  
Year to date cooling degree days 0  
Moisture  
Dew Point 14 °F    
Average Humidity 81    
Maximum Humidity 88    
Minimum Humidity 72    
Precipitation  
Precipitation 0.00 in 0.01 in - ()
Month to date precipitation 0.01  
Year to date precipitation 0.01  
Snow  
Snow 0.00 in - - ()
Since 1 July snowfall  
Snow Depth -    
Sea Level Pressure  
Sea Level Pressure 30.24 in    
Wind  
Wind Speed 6 mph (NNW)    
Max Wind Speed 12 mph    
Max Gust Speed -    
Visibility 10 miles    
Events Snow    
T = Trace of Precipitation, MM = Missing Value Source: NWS Daily Summary

Daily Weather History Graph

Daily Weather History Graph

Search for Another Location

Airport or City:

Trip Planner

Search our weather history database for the weather conditions in past years. The results will help you decide how hot, cold, wet, or windy it might be!

Date:

Astronomy

Jan. 01, 2013 Rise Set
Actual Time 7:58 AM CST 5:41 PM CST
Civil Twilight 7:29 AM CST 6:09 PM CST
Nautical Twilight 6:57 AM CST 6:42 PM CST
Astronomical Twilight 6:26 AM CST 7:13 PM CST
Moon 10:06 PM CST (1/1) 10:18 AM CST (1/1)
Length of Visible Light 10h 40m
Length of Day
9h 42m
Waning Gibbous, 83% of the Moon is Illuminated
Jan 1
Waning Gibbous
Jan 4
Last Quarter
Jan 11
New
Jan 18
First Quarter
Jan 26
Full

Hourly Weather History & Observations

Time (CST) Temp. Windchill Dew Point Humidity Pressure Visibility Wind Dir Wind Speed Gust Speed Precip Events Conditions
12:17 AM 21.2 °F 14.9 °F 17.6 °F 86% 30.11 in 10.0 mi North 4.6 mph - N/A   Overcast
12:53 AM 21.0 °F 14.6 °F 16.0 °F 81% 30.18 in 10.0 mi North 4.6 mph - N/A   Overcast
1:01 AM 21.2 °F 16.4 °F 15.8 °F 80% 30.11 in 10.0 mi North 3.5 mph - N/A   Overcast
1:53 AM 21.0 °F 10.6 °F 16.0 °F 81% 30.18 in 10.0 mi North 9.2 mph - N/A   Overcast
2:53 AM 19.9 °F 8.6 °F 16.0 °F 85% 30.17 in 10.0 mi North 10.4 mph - N/A   Overcast
3:53 AM 19.9 °F 7.9 °F 15.1 °F 81% 30.19 in 10.0 mi NNW 11.5 mph - N/A   Overcast
4:53 AM 16.0 °F 8.8 °F 12.0 °F 84% 30.22 in 10.0 mi NW 4.6 mph - N/A   Scattered Clouds
5:51 AM 14.0 °F - 10.4 °F 86% 30.14 in 10.0 mi Calm Calm - N/A   Mostly Cloudy
5:53 AM 12.9 °F - 10.0 °F 88% 30.24 in 10.0 mi Calm Calm - N/A   Mostly Cloudy
6:37 AM 17.6 °F 6.4 °F 12.2 °F 79% 30.15 in 10.0 mi NW 9.2 mph - N/A   Overcast
6:53 AM 17.1 °F 5.8 °F 12.9 °F 84% 30.25 in 9.0 mi NNW 9.2 mph - 0.00 in Snow Light Snow
7:48 AM 17.6 °F 7.3 °F 14.0 °F 86% 30.18 in 5.0 mi North 8.1 mph - 0.00 in Snow Light Snow
7:53 AM 18.0 °F 8.7 °F 14.0 °F 84% 30.27 in 6.0 mi North 6.9 mph - 0.00 in Snow Light Snow
8:06 AM 17.6 °F 10.7 °F 12.2 °F 79% 30.20 in 4.0 mi North 4.6 mph - 0.00 in Snow Light Snow
8:31 AM 17.6 °F 6.4 °F 12.2 °F 79% 30.21 in 9.0 mi North 9.2 mph - 0.00 in   Overcast
8:41 AM 17.6 °F 6.4 °F 14.0 °F 86% 30.21 in 10.0 mi North 9.2 mph - 0.00 in   Overcast
8:53 AM 18.0 °F 7.7 °F 14.0 °F 84% 30.30 in 10.0 mi North 8.1 mph - 0.00 in   Overcast
9:36 AM 17.6 °F 8.2 °F 14.0 °F 86% 30.24 in 10.0 mi North 6.9 mph - N/A   Overcast
9:53 AM 18.0 °F 9.8 °F 14.0 °F 84% 30.34 in 10.0 mi North 5.8 mph - N/A   Overcast
10:18 AM 19.4 °F 9.5 °F 14.0 °F 80% 30.25 in 10.0 mi NNW 8.1 mph - N/A   Overcast
10:53 AM 19.0 °F 8.2 °F 14.0 °F 81% 30.34 in 10.0 mi NNW 9.2 mph - N/A   Overcast
11:16 AM 19.4 °F 8.6 °F 14.0 °F 80% 30.25 in 10.0 mi NNW 9.2 mph - N/A   Overcast
11:53 AM 21.0 °F 10.6 °F 15.1 °F 78% 30.33 in 10.0 mi NNW 9.2 mph - N/A   Overcast
12:29 PM 21.2 °F 11.7 °F 15.8 °F 80% 30.23 in 10.0 mi NNW 8.1 mph - N/A   Overcast
12:53 PM 21.9 °F 12.5 °F 16.0 °F 78% 30.30 in 10.0 mi NNW 8.1 mph - N/A   Mostly Cloudy
1:06 PM 23.0 °F 13.9 °F 15.8 °F 74% 30.22 in 10.0 mi NNW 8.1 mph - N/A   Scattered Clouds
1:53 PM 24.1 °F 18.2 °F 17.1 °F 75% 30.28 in 10.0 mi North 4.6 mph - N/A   Partly Cloudy
2:53 PM 25.0 °F 14.8 °F 17.1 °F 72% 30.26 in 10.0 mi North 10.4 mph - N/A   Clear
3:53 PM 25.0 °F 17.1 °F 17.1 °F 72% 30.26 in 10.0 mi North 6.9 mph - N/A   Clear
4:53 PM 23.0 °F 14.7 °F 16.0 °F 74% 30.27 in 10.0 mi North 6.9 mph - N/A   Clear
5:53 PM 19.9 °F 13.4 °F 15.1 °F 81% 30.30 in 10.0 mi NNW 4.6 mph - N/A   Clear
6:53 PM 16.0 °F - 12.0 °F 84% 30.31 in 10.0 mi Calm Calm - N/A   Clear
7:53 PM 15.1 °F 4.2 °F 12.0 °F 88% 30.32 in 10.0 mi WSW 8.1 mph - N/A   Mostly Cloudy
8:53 PM 15.1 °F 6.4 °F 10.9 °F 84% 30.30 in 10.0 mi SW 5.8 mph - N/A   Overcast
9:53 PM 15.1 °F 7.7 °F 10.9 °F 84% 30.28 in 10.0 mi West 4.6 mph - N/A   Clear
10:53 PM 12.9 °F 0.7 °F 8.1 °F 81% 30.30 in 10.0 mi SW 9.2 mph - N/A   Clear
11:53 PM 12.9 °F 5.2 °F 8.1 °F 81% 30.30 in 10.0 mi West 4.6 mph - N/A   Clear